,,,PA_Meas_PMT16A,,PR_Meas_QMR101_102,,RH_Meas_QMH101,,SR_Meas_QMS101,,TA_Meas_QMH101,,GenWind,,GenWind,
date,time,status,PA,status,PR,status,RH,status,SR,status,TA,status,DirAvg,status,SpdAvg,
2009-11-08, 00:00:04,VALID,1008.53,VALID,0,VALID,86.7048,VALID,0,VALID,23.3645,VALID,70,VALID,0.301953,
2009-11-08, 00:01:04,VALID,1008.52,VALID,0,VALID,86.7124,VALID,0,VALID,23.3628,VALID,70,VALID,0.262109,
2009-11-08, 00:02:04,VALID,1008.48,VALID,0,VALID,86.7201,VALID,0,VALID,23.3433,VALID,70,VALID,0.427344,
2009-11-08, 00:03:04,VALID,1008.45,VALID,0,VALID,86.7353,VALID,0,VALID,23.3433,VALID,70,VALID,0.301953,
2009-11-08, 00:04:04,VALID,1008.46,VALID,0,VALID,86.7201,VALID,0,VALID,23.3433,VALID,71,VALID,0,
2009-11-08, 00:05:04,VALID,1008.42,VALID,0,VALID,86.7353,VALID,0,VALID,23.3238,VALID,71,VALID,0.433203,
2009-11-08, 00:06:04,VALID,1008.42,VALID,0,VALID,86.7429,VALID,0,VALID,23.3238,VALID,71,VALID,0.386328,
2009-11-08, 00:07:04,VALID,1008.43,VALID,0,VALID,86.7124,VALID,0,VALID,23.3238,VALID,71,VALID,0.339453,
2009-11-08, 00:08:04,VALID,1008.37,VALID,0,VALID,86.7353,VALID,0,VALID,23.3238,VALID,71,VALID,0.438281,
2009-11-08, 00:09:04,VALID,1008.39,VALID,0,VALID,86.7277,VALID,0,VALID,23.3043,VALID,74,VALID,0.596484,
2009-11-08, 00:10:04,VALID,1008.36,VALID,0,VALID,86.7277,VALID,0.105969,VALID,23.3026,VALID,74,VALID,0.605859,
2009-11-08, 00:11:04,VALID,1008.35,VALID,0,VALID,86.7506,VALID,0.105969,VALID,23.3026,VALID,83,VALID,0.461328,
2009-11-08, 00:12:04,VALID,1008.35,VALID,0,VALID,86.7277,VALID,0.105969,VALID,23.322,VALID,83,VALID,0.284766,
2009-11-08, 00:13:04,VALID,1008.34,VALID,0,VALID,86.7277,VALID,0.105969,VALID,23.322,VALID,98,VALID,0.452344,
2009-11-08, 00:14:04,VALID,1008.32,VALID,0,VALID,86.7201,VALID,0.105969,VALID,23.3238,VALID,112,VALID,0.622656,
2009-11-08, 00:15:04,VALID,1008.31,VALID,0,VALID,86.7506,VALID,0.105969,VALID,23.3043,VALID,96,VALID,0.409375,
2009-11-08, 00:16:04,VALID,1008.27,VALID,0,VALID,86.7277,VALID,0,VALID,23.3026,VALID,96,VALID,0.695313,
2009-11-08, 00:17:04,VALID,1008.3,VALID,0,VALID,86.7353,VALID,0.105969,VALID,23.3043,VALID,96,VALID,0.355859,
2009-11-08, 00:18:04,VALID,1008.28,VALID,0,VALID,86.7277,VALID,0.105969,VALID,23.2831,VALID,95,VALID,0.366016,
2009-11-08, 00:19:04,VALID,1008.23,VALID,0,VALID,86.7506,VALID,0,VALID,23.2831,VALID,94,VALID,0.614062,
2009-11-08, 00:20:04,VALID,1008.23,VALID,0,VALID,86.7506,VALID,0.105969,VALID,23.2831,VALID,94,VALID,0.594922,
2009-11-08, 00:21:04,VALID,1008.26,VALID,0,VALID,86.7506,VALID,0,VALID,23.3043,VALID,93,VALID,0.319531,
2009-11-08, 00:22:04,VALID,1008.24,VALID,0,VALID,86.7353,VALID,0,VALID,23.2831,VALID,75,VALID,0.753125,
2009-11-08, 00:23:04,VALID,1008.24,VALID,0,VALID,86.7277,VALID,0,VALID,23.2831,VALID,104,VALID,0.783594,
2009-11-08, 00:24:04,VALID,1008.25,VALID,0,VALID,86.7506,VALID,0.105969,VALID,23.2848,VALID,79,VALID,0.889844,
2009-11-08, 00:25:04,VALID,1008.25,VALID,0,VALID,86.7506,VALID,0,VALID,23.2848,VALID,75,VALID,0.634766,
2009-11-08, 00:26:04,VALID,1008.23,VALID,0,VALID,86.7506,VALID,0.105969,VALID,23.2848,VALID,67,VALID,0.680078,
2009-11-08, 00:27:04,VALID,1008.23,VALID,0,VALID,86.7811,VALID,0.105969,VALID,23.2636,VALID,73,VALID,0.632031,
2009-11-08, 00:28:04,VALID,1008.21,VALID,0,VALID,86.7811,VALID,0,VALID,23.2636,VALID,81,VALID,0.611719,
2009-11-08, 00:29:04,VALID,1008.21,VALID,0,VALID,86.7887,VALID,0,VALID,23.2831,VALID,81,VALID,0.828516,
2009-11-08, 00:30:04,VALID,1008.18,VALID,0,VALID,86.7963,VALID,0,VALID,23.2636,VALID,82,VALID,0.524219,
2009-11-08, 00:31:04,VALID,1008.17,VALID,0,VALID,86.7811,VALID,0.105969,VALID,23.2848,VALID,99,VALID,0.86875,
2009-11-08, 00:32:04,VALID,1008.15,VALID,0,VALID,86.7887,VALID,0,VALID,23.2848,VALID,81,VALID,0.460156,
2009-11-08, 00:33:04,VALID,1008.15,VALID,0,VALID,86.804,VALID,0,VALID,23.2654,VALID,59,VALID,0.400781,
2009-11-08, 00:34:04,VALID,1008.13,VALID,0,VALID,86.7963,VALID,0,VALID,23.2636,VALID,59,VALID,0.240625,
2009-11-08, 00:35:04,VALID,1008.12,VALID,0,VALID,86.7887,VALID,0,VALID,23.2636,VALID,59,VALID,0.564844,
2009-11-08, 00:36:04,VALID,1008.12,VALID,0,VALID,86.8192,VALID,0.105969,VALID,23.2654,VALID,66,VALID,0.707031,
2009-11-08, 00:37:04,VALID,1008.09,VALID,0,VALID,86.8421,VALID,0,VALID,23.2459,VALID,45,VALID,0.991797,
2009-11-08, 00:38:04,VALID,1008.1,VALID,0,VALID,86.8192,VALID,0,VALID,23.2264,VALID,70,VALID,0.825781,
2009-11-08, 00:39:04,VALID,1008.12,VALID,0,VALID,86.8268,VALID,0,VALID,23.2264,VALID,59,VALID,0.617578,
2009-11-08, 00:40:04,VALID,1008.11,VALID,0,VALID,86.8421,VALID,0,VALID,23.2264,VALID,56,VALID,0.321484,
2009-11-08, 00:41:04,VALID,1008.09,VALID,0,VALID,86.8116,VALID,0.105969,VALID,23.2246,VALID,44,VALID,0.364062,
2009-11-08, 00:42:04,VALID,1008.05,VALID,0,VALID,86.8192,VALID,0,VALID,23.2264,VALID,58,VALID,0.454297,
2009-11-08, 00:43:04,VALID,1008.03,VALID,0,VALID,86.8345,VALID,0,VALID,23.1857,VALID,64,VALID,0.374609,
2009-11-08, 00:44:04,VALID,1008.02,VALID,0,VALID,86.8192,VALID,0,VALID,23.2051,VALID,61,VALID,0.330078,
2009-11-08, 00:45:04,VALID,1007.98,VALID,0,VALID,86.8268,VALID,0,VALID,23.2264,VALID,27,VALID,0.550781,
2009-11-08, 00:46:04,VALID,1007.99,VALID,0,VALID,86.8345,VALID,0,VALID,23.2069,VALID,27,VALID,0.370703,
2009-11-08, 00:47:04,VALID,1008.01,VALID,0,VALID,86.804,VALID,0.105969,VALID,23.2264,VALID,65,VALID,0.332422,
2009-11-08, 00:48:04,VALID,1007.99,VALID,0,VALID,86.8268,VALID,0,VALID,23.2051,VALID,65,VALID,0.427344,
2009-11-08, 00:49:04,VALID,1007.94,VALID,0,VALID,86.804,VALID,0.105969,VALID,23.2051,VALID,66,VALID,0.334766,
2009-11-08, 00:50:04,VALID,1007.93,VALID,0,VALID,86.804,VALID,0,VALID,23.2264,VALID,60,VALID,0.407422,
2009-11-08, 00:51:04,VALID,1007.93,VALID,0,VALID,86.804,VALID,0,VALID,23.2459,VALID,59,VALID,0.398047,
2009-11-08, 00:52:04,VALID,1007.9,VALID,0,VALID,86.804,VALID,0,VALID,23.2051,VALID,61,VALID,0.70625,
2009-11-08, 00:53:04,VALID,1007.89,VALID,0,VALID,86.7887,VALID,0.105969,VALID,23.2264,VALID,55,VALID,0.758203,
2009-11-08, 00:54:04,VALID,1007.85,VALID,0,VALID,86.8116,VALID,0,VALID,23.2264,VALID,56,VALID,0.578906,
2009-11-08, 00:55:04,VALID,1007.83,VALID,0,VALID,86.7963,VALID,0.105969,VALID,23.2051,VALID,33,VALID,0.547656,
2009-11-08, 00:56:04,VALID,1007.8,VALID,0,VALID,86.7811,VALID,0.105969,VALID,23.2246,VALID,46,VALID,0.1125,
2009-11-08, 00:57:04,VALID,1007.8,VALID,0,VALID,86.7887,VALID,0,VALID,23.2264,VALID,77,VALID,0.780469,
2009-11-08, 00:58:04,VALID,1007.8,VALID,0,VALID,86.7887,VALID,0,VALID,23.2264,VALID,75,VALID,0.725,
2009-11-08, 00:59:04,VALID,1007.79,VALID,0,VALID,86.7811,VALID,0.105969,VALID,23.2246,VALID,84,VALID,0.575,
2009-11-08, 01:00:04,VALID,1007.78,VALID,0,VALID,86.7887,VALID,0.105969,VALID,23.2459,VALID,84,VALID,0.677344,
2009-11-08, 01:01:04,VALID,1007.77,VALID,0,VALID,86.7811,VALID,0.105969,VALID,23.2246,VALID,97,VALID,0.533594,
2009-11-08, 01:02:04,VALID,1007.75,VALID,0,VALID,86.7734,VALID,0,VALID,23.2459,VALID,86,VALID,0.383203,
2009-11-08, 01:03:04,VALID,1007.74,VALID,0,VALID,86.7658,VALID,0.105969,VALID,23.2246,VALID,92,VALID,0.830469,
2009-11-08, 01:04:04,VALID,1007.7,VALID,0,VALID,86.7658,VALID,0.105969,VALID,23.2654,VALID,64,VALID,0.75625,
2009-11-08, 01:05:04,VALID,1007.7,VALID,0,VALID,86.7506,VALID,0.105969,VALID,23.2246,VALID,102,VALID,1.19531,
2009-11-08, 01:06:04,VALID,1007.66,VALID,0,VALID,86.7582,VALID,0.105969,VALID,23.2636,VALID,87,VALID,0.857813,
2009-11-08, 01:07:04,VALID,1007.66,VALID,0,VALID,86.7429,VALID,0,VALID,23.2654,VALID,81,VALID,0.3625,
2009-11-08, 01:08:04,VALID,1007.66,VALID,0,VALID,86.7582,VALID,0.105969,VALID,23.2848,VALID,42,VALID,0.671875,
2009-11-08, 01:09:04,VALID,1007.63,VALID,0,VALID,86.7582,VALID,0.105969,VALID,23.2441,VALID,63,VALID,0.764844,
2009-11-08, 01:10:04,VALID,1007.64,VALID,0,VALID,86.7506,VALID,0,VALID,23.2459,VALID,70,VALID,0.633984,
2009-11-08, 01:11:04,VALID,1007.63,VALID,0,VALID,86.7658,VALID,0,VALID,23.2654,VALID,61,VALID,0.412109,
2009-11-08, 01:12:04,VALID,1007.61,VALID,0,VALID,86.7429,VALID,0.105969,VALID,23.2441,VALID,67,VALID,0.616016,
2009-11-08, 01:13:04,VALID,1007.59,VALID,0,VALID,86.7582,VALID,0,VALID,23.2459,VALID,83,VALID,0.710156,
2009-11-08, 01:14:04,VALID,1007.58,VALID,0,VALID,86.7277,VALID,0.105969,VALID,23.2246,VALID,86,VALID,0.882031,
2009-11-08, 01:15:04,VALID,1007.55,VALID,0,VALID,86.7201,VALID,0,VALID,23.2246,VALID,71,VALID,0.544922,
2009-11-08, 01:16:04,VALID,1007.55,VALID,0,VALID,86.7353,VALID,0,VALID,23.2459,VALID,55,VALID,0.714844,
2009-11-08, 01:17:04,VALID,1007.5,VALID,0,VALID,86.7201,VALID,0.105969,VALID,23.2246,VALID,72,VALID,0.885938,
2009-11-08, 01:18:04,VALID,1007.5,VALID,0,VALID,86.7201,VALID,0,VALID,23.2459,VALID,34,VALID,0.613672,
2009-11-08, 01:19:04,VALID,1007.44,VALID,0,VALID,86.7201,VALID,0,VALID,23.2246,VALID,64,VALID,0.519922,
2009-11-08, 01:20:04,VALID,1007.44,VALID,0,VALID,86.7277,VALID,0.105969,VALID,23.2246,VALID,86,VALID,0.694922,
2009-11-08, 01:21:04,VALID,1007.46,VALID,0,VALID,86.6972,VALID,0.105969,VALID,23.2441,VALID,41,VALID,0.572266,
2009-11-08, 01:22:04,VALID,1007.42,VALID,0,VALID,86.7048,VALID,0,VALID,23.2246,VALID,80,VALID,0.684375,
2009-11-08, 01:23:04,VALID,1007.4,VALID,0,VALID,86.7124,VALID,0,VALID,23.2459,VALID,62,VALID,0.934375,
2009-11-08, 01:24:04,VALID,1007.39,VALID,0,VALID,86.7277,VALID,0.105969,VALID,23.2459,VALID,61,VALID,0.678906,
2009-11-08, 01:25:04,VALID,1007.31,VALID,0,VALID,86.7353,VALID,0,VALID,23.2051,VALID,29,VALID,0.769922,
2009-11-08, 01:26:04,VALID,1007.34,VALID,0,VALID,86.7201,VALID,0,VALID,23.2264,VALID,43,VALID,0.573828,
2009-11-08, 01:27:04,VALID,1007.3,VALID,0,VALID,86.7201,VALID,0.105969,VALID,23.2246,VALID,43,VALID,0.229297,
2009-11-08, 01:28:04,VALID,1007.28,VALID,0,VALID,86.6972,VALID,0,VALID,23.2246,VALID,65,VALID,0.406641,
2009-11-08, 01:29:04,VALID,1007.24,VALID,0,VALID,86.7277,VALID,0.105969,VALID,23.2051,VALID,81,VALID,0.703516,
2009-11-08, 01:30:04,VALID,1007.2,VALID,0,VALID,86.7429,VALID,0,VALID,23.1857,VALID,45,VALID,0.795313,
2009-11-08, 01:31:04,VALID,1007.16,VALID,0,VALID,86.7582,VALID,0.105969,VALID,23.2069,VALID,45,VALID,0.207813,
2009-11-08, 01:32:04,VALID,1007.13,VALID,0,VALID,86.7582,VALID,0.105969,VALID,23.1874,VALID,357,VALID,0.674219,
2009-11-08, 01:33:04,VALID,1007.11,VALID,0,VALID,86.7734,VALID,0,VALID,23.1679,VALID,323,VALID,0.499609,
2009-11-08, 01:34:04,VALID,1007.04,VALID,0,VALID,86.7582,VALID,0,VALID,23.1679,VALID,13,VALID,0.510156,
2009-11-08, 01:35:04,VALID,1007.05,VALID,0,VALID,86.7811,VALID,0,VALID,23.1679,VALID,20,VALID,0.532812,
2009-11-08, 01:36:04,VALID,1007.02,VALID,0,VALID,86.7658,VALID,0,VALID,23.1485,VALID,353,VALID,0.136719,
2009-11-08, 01:37:04,VALID,1007.03,VALID,0,VALID,86.7582,VALID,0,VALID,23.1485,VALID,52,VALID,0.255859,
2009-11-08, 01:38:04,VALID,1007.01,VALID,0,VALID,86.7353,VALID,0,VALID,23.1272,VALID,50,VALID,0.103906,
2009-11-08, 01:39:04,VALID,1006.99,VALID,0,VALID,86.7429,VALID,0,VALID,23.1485,VALID,46,VALID,0,
2009-11-08, 01:40:04,VALID,1006.96,VALID,0,VALID,86.7201,VALID,0,VALID,23.1272,VALID,92,VALID,0,
2009-11-08, 01:41:04,VALID,1006.91,VALID,0,VALID,86.7048,VALID,0,VALID,23.1485,VALID,92,VALID,0,
2009-11-08, 01:42:04,VALID,1006.9,VALID,0,VALID,86.7353,VALID,0,VALID,23.1485,VALID,12,VALID,0.886719,
2009-11-08, 01:43:04,VALID,1006.89,VALID,0,VALID,86.7506,VALID,0,VALID,23.1485,VALID,21,VALID,0.372266,
2009-11-08, 01:44:04,VALID,1006.85,VALID,0,VALID,86.7582,VALID,0,VALID,23.129,VALID,323,VALID,0.328516,
2009-11-08, 01:45:04,VALID,1006.83,VALID,0,VALID,86.7582,VALID,0,VALID,23.129,VALID,71,VALID,0.398828,
2009-11-08, 01:46:04,VALID,1006.81,VALID,0,VALID,86.7429,VALID,0,VALID,23.1095,VALID,74,VALID,0.174219,
2009-11-08, 01:47:04,VALID,1006.8,VALID,0,VALID,86.7582,VALID,0,VALID,23.1095,VALID,45,VALID,0.417578,
2009-11-08, 01:48:04,VALID,1006.77,VALID,0,VALID,86.7582,VALID,0.105969,VALID,23.0883,VALID,45,VALID,0.137891,
2009-11-08, 01:49:04,VALID,1006.78,VALID,0,VALID,86.7582,VALID,0,VALID,23.09,VALID,45,VALID,0,
2009-11-08, 01:50:04,VALID,1006.75,VALID,0,VALID,86.7506,VALID,0,VALID,23.1095,VALID,57,VALID,0.408203,
2009-11-08, 01:51:04,VALID,1006.73,VALID,0,VALID,86.7658,VALID,0.105969,VALID,23.0688,VALID,47,VALID,0.324219,
2009-11-08, 01:52:04,VALID,1006.69,VALID,0,VALID,86.7582,VALID,0.105969,VALID,23.0688,VALID,47,VALID,0,
2009-11-08, 01:53:04,VALID,1006.67,VALID,0,VALID,86.7582,VALID,0,VALID,23.09,VALID,41,VALID,0.0617188,
2009-11-08, 01:54:04,VALID,1006.63,VALID,0,VALID,86.7429,VALID,0,VALID,23.0493,VALID,16,VALID,0,
2009-11-08, 01:55:04,VALID,1006.63,VALID,0,VALID,86.7429,VALID,0,VALID,23.0705,VALID,38,VALID,0.152734,
2009-11-08, 01:56:04,VALID,1006.61,VALID,0,VALID,86.7658,VALID,0,VALID,23.0705,VALID,346,VALID,0.320313,
2009-11-08, 01:57:04,VALID,1006.64,VALID,0,VALID,86.7429,VALID,0,VALID,23.0705,VALID,3,VALID,0.0257812,
2009-11-08, 01:58:04,VALID,1006.65,VALID,0,VALID,86.7353,VALID,0.105969,VALID,23.0493,VALID,348,VALID,0.115234,
2009-11-08, 01:59:04,VALID,1006.64,VALID,0,VALID,86.7277,VALID,0,VALID,23.0705,VALID,341,VALID,0.0847656,
2009-11-08, 02:00:04,VALID,1006.65,VALID,0,VALID,86.7277,VALID,0,VALID,23.0493,VALID,12,VALID,0.204688,
2009-11-08, 02:01:04,VALID,1006.64,VALID,0,VALID,86.7277,VALID,0.105969,VALID,23.0705,VALID,12,VALID,0.0855469,
2009-11-08, 02:02:04,VALID,1006.64,VALID,0,VALID,86.7201,VALID,0,VALID,23.0493,VALID,11,VALID,0.0378906,
2009-11-08, 02:03:04,VALID,1006.6,VALID,0,VALID,86.6972,VALID,0,VALID,23.09,VALID,10,VALID,0.0851562,
2009-11-08, 02:04:04,VALID,1006.61,VALID,0,VALID,86.6972,VALID,0,VALID,23.0688,VALID,10,VALID,0,
2009-11-08, 02:05:04,VALID,1006.62,VALID,0,VALID,86.7124,VALID,0,VALID,23.09,VALID,10,VALID,0,
2009-11-08, 02:06:04,VALID,1006.59,VALID,0,VALID,86.7048,VALID,0,VALID,23.09,VALID,10,VALID,0,
2009-11-08, 02:07:04,VALID,1006.6,VALID,0,VALID,86.7124,VALID,0.105969,VALID,23.1095,VALID,330,VALID,0.335938,
2009-11-08, 02:08:04,VALID,1006.62,VALID,0,VALID,86.7201,VALID,0.105969,VALID,23.09,VALID,321,VALID,0.152734,
2009-11-08, 02:09:04,VALID,1006.59,VALID,0,VALID,86.7277,VALID,0.105969,VALID,23.09,VALID,321,VALID,0.301953,
2009-11-08, 02:10:04,VALID,1006.61,VALID,0,VALID,86.7277,VALID,0,VALID,23.0493,VALID,340,VALID,0.391406,
2009-11-08, 02:11:04,VALID,1006.56,VALID,0,VALID,86.7353,VALID,0.105969,VALID,23.0493,VALID,330,VALID,0.215625,
2009-11-08, 02:12:04,VALID,1006.56,VALID,0,VALID,86.7277,VALID,0,VALID,23.0705,VALID,329,VALID,0.0789063,
2009-11-08, 02:13:04,VALID,1006.53,VALID,0,VALID,86.7201,VALID,0,VALID,23.0511,VALID,329,VALID,0.26875,
2009-11-08, 02:14:04,VALID,1006.52,VALID,0,VALID,86.7201,VALID,0,VALID,23.0705,VALID,330,VALID,0.1875,
2009-11-08, 02:15:04,VALID,1006.52,VALID,0,VALID,86.7124,VALID,0,VALID,23.0705,VALID,326,VALID,0.256641,
2009-11-08, 02:16:04,VALID,1006.53,VALID,0,VALID,86.7048,VALID,0,VALID,23.0705,VALID,326,VALID,0.323438,
2009-11-08, 02:17:04,VALID,1006.51,VALID,0,VALID,86.7048,VALID,0,VALID,23.0705,VALID,324,VALID,0.177734,
2009-11-08, 02:18:04,VALID,1006.49,VALID,0,VALID,86.7048,VALID,0,VALID,23.0705,VALID,324,VALID,0.316406,
2009-11-08, 02:19:04,VALID,1006.47,VALID,0,VALID,86.7124,VALID,0,VALID,23.0493,VALID,324,VALID,0.0414063,
2009-11-08, 02:20:04,VALID,1006.45,VALID,0,VALID,86.7048,VALID,0.105969,VALID,23.0493,VALID,324,VALID,0.000390625,
2009-11-08, 02:21:04,VALID,1006.42,VALID,0,VALID,86.7201,VALID,0,VALID,23.0705,VALID,324,VALID,0.0660156,
2009-11-08, 02:22:04,VALID,1006.43,VALID,0,VALID,86.7277,VALID,0,VALID,23.0493,VALID,324,VALID,0.294531,
2009-11-08, 02:23:04,VALID,1006.43,VALID,0,VALID,86.7277,VALID,0,VALID,23.0493,VALID,324,VALID,0,
2009-11-08, 02:24:04,VALID,1006.41,VALID,0,VALID,86.6972,VALID,0,VALID,23.0511,VALID,324,VALID,0.218359,
2009-11-08, 02:25:04,VALID,1006.41,VALID,0,VALID,86.7048,VALID,0,VALID,23.0705,VALID,324,VALID,0.0164062,
2009-11-08, 02:26:04,VALID,1006.41,VALID,0,VALID,86.7048,VALID,0,VALID,23.0493,VALID,324,VALID,0.0410156,
2009-11-08, 02:27:04,VALID,1006.4,VALID,0,VALID,86.6896,VALID,0.105969,VALID,23.0705,VALID,324,VALID,0,
2009-11-08, 02:28:04,VALID,1006.39,VALID,0,VALID,86.6972,VALID,0,VALID,23.09,VALID,324,VALID,0,
2009-11-08, 02:29:04,VALID,1006.38,VALID,0,VALID,86.6743,VALID,0,VALID,23.0688,VALID,324,VALID,0,
2009-11-08, 02:30:04,VALID,1006.39,VALID,0,VALID,86.6743,VALID,0,VALID,23.0705,VALID,324,VALID,0.000390625,
2009-11-08, 02:31:04,VALID,1006.37,VALID,0,VALID,86.6972,VALID,0.105969,VALID,23.0493,VALID,314,VALID,0.0710938,
2009-11-08, 02:32:04,VALID,1006.38,VALID,0,VALID,86.7048,VALID,0,VALID,23.0493,VALID,280,VALID,0,
2009-11-08, 02:33:04,VALID,1006.4,VALID,0,VALID,86.6972,VALID,0,VALID,23.09,VALID,280,VALID,0,
2009-11-08, 02:34:04,VALID,1006.4,VALID,0,VALID,86.7048,VALID,0,VALID,23.0705,VALID,280,VALID,0.121094,
2009-11-08, 02:35:04,VALID,1006.44,VALID,0,VALID,86.6896,VALID,0.105969,VALID,23.0688,VALID,280,VALID,0.0726563,
2009-11-08, 02:36:04,VALID,1006.45,VALID,0,VALID,86.6972,VALID,0,VALID,23.0493,VALID,280,VALID,0,
2009-11-08, 02:37:04,VALID,1006.45,VALID,0,VALID,86.7048,VALID,0,VALID,23.0705,VALID,280,VALID,0,
2009-11-08, 02:38:04,VALID,1006.44,VALID,0,VALID,86.7048,VALID,0,VALID,23.0511,VALID,280,VALID,0,
2009-11-08, 02:39:04,VALID,1006.42,VALID,0,VALID,86.6819,VALID,0,VALID,23.0298,VALID,280,VALID,0.0503906,
2009-11-08, 02:40:04,VALID,1006.46,VALID,0,VALID,86.6819,VALID,0,VALID,23.0723,VALID,280,VALID,0.227344,
2009-11-08, 02:41:04,VALID,1006.45,VALID,0,VALID,86.6972,VALID,0,VALID,23.0316,VALID,280,VALID,0.123438,
2009-11-08, 02:42:04,VALID,1006.47,VALID,0,VALID,86.7124,VALID,0,VALID,23.0316,VALID,280,VALID,0.272656,
2009-11-08, 02:43:04,VALID,1006.48,VALID,0,VALID,86.6819,VALID,0,VALID,23.0316,VALID,279,VALID,0.207813,
2009-11-08, 02:44:04,VALID,1006.49,VALID,0,VALID,86.6819,VALID,0,VALID,23.0316,VALID,279,VALID,0.145313,
2009-11-08, 02:45:04,VALID,1006.5,VALID,0,VALID,86.7124,VALID,0,VALID,23.0528,VALID,270,VALID,0.437891,
2009-11-08, 02:46:04,VALID,1006.48,VALID,0,VALID,86.6896,VALID,0,VALID,23.0528,VALID,268,VALID,0.172266,
2009-11-08, 02:47:04,VALID,1006.48,VALID,0,VALID,86.6819,VALID,0,VALID,23.0528,VALID,268,VALID,0,
2009-11-08, 02:48:04,VALID,1006.48,VALID,0,VALID,86.6819,VALID,0,VALID,23.0316,VALID,268,VALID,0,
2009-11-08, 02:49:04,VALID,1006.5,VALID,0,VALID,86.6972,VALID,0,VALID,23.0333,VALID,250,VALID,0,
2009-11-08, 02:50:04,VALID,1006.51,VALID,0,VALID,86.6743,VALID,0,VALID,23.0316,VALID,197,VALID,0,
2009-11-08, 02:51:04,VALID,1006.51,VALID,0,VALID,86.6896,VALID,0,VALID,23.0121,VALID,196,VALID,0,
2009-11-08, 02:52:04,VALID,1006.52,VALID,0,VALID,86.6896,VALID,0,VALID,23.0121,VALID,195,VALID,0,
2009-11-08, 02:53:04,VALID,1006.55,VALID,0,VALID,86.6819,VALID,0,VALID,23.0333,VALID,188,VALID,0,
2009-11-08, 02:54:04,VALID,1006.58,VALID,0,VALID,86.6972,VALID,0,VALID,23.0333,VALID,188,VALID,0,
2009-11-08, 02:55:04,VALID,1006.6,VALID,0,VALID,86.6896,VALID,0,VALID,23.0316,VALID,180,VALID,0.213672,
2009-11-08, 02:56:04,VALID,1006.63,VALID,0,VALID,86.6896,VALID,0,VALID,23.0316,VALID,180,VALID,0.690234,
2009-11-08, 02:57:04,VALID,1006.66,VALID,0,VALID,86.6896,VALID,0,VALID,23.0103,VALID,165,VALID,0.623438,
2009-11-08, 02:58:04,VALID,1006.65,VALID,0,VALID,86.6896,VALID,0.105969,VALID,23.0103,VALID,175,VALID,0.857031,
2009-11-08, 02:59:04,VALID,1006.69,VALID,0,VALID,86.6896,VALID,0.105969,VALID,23.0103,VALID,178,VALID,0.896094,
2009-11-08, 03:00:04,VALID,1006.69,VALID,0,VALID,86.6591,VALID,0,VALID,22.9909,VALID,178,VALID,0.834766,
2009-11-08, 03:01:04,VALID,1006.71,VALID,0,VALID,86.6819,VALID,0.105969,VALID,23.0103,VALID,164,VALID,0.896484,
2009-11-08, 03:02:04,VALID,1006.72,VALID,0,VALID,86.6591,VALID,0,VALID,23.0316,VALID,167,VALID,0.941797,
2009-11-08, 03:03:04,VALID,1006.71,VALID,0,VALID,86.6591,VALID,0,VALID,23.0511,VALID,176,VALID,1.24961,
2009-11-08, 03:04:04,VALID,1006.7,VALID,0,VALID,86.6438,VALID,0,VALID,23.0298,VALID,169,VALID,0.801562,
2009-11-08, 03:05:04,VALID,1006.7,VALID,0,VALID,86.6667,VALID,0.105969,VALID,23.0298,VALID,181,VALID,0.645312,
2009-11-08, 03:06:04,VALID,1006.69,VALID,0,VALID,86.6362,VALID,0.105969,VALID,23.0298,VALID,154,VALID,0.494531,
2009-11-08, 03:07:04,VALID,1006.67,VALID,0,VALID,86.6514,VALID,0,VALID,23.0493,VALID,127,VALID,0.446875,
2009-11-08, 03:08:04,VALID,1006.63,VALID,0,VALID,86.6286,VALID,0.105969,VALID,23.0705,VALID,135,VALID,0.488672,
2009-11-08, 03:09:04,VALID,1006.65,VALID,0,VALID,86.6362,VALID,0,VALID,23.0493,VALID,143,VALID,0.456641,
2009-11-08, 03:10:04,VALID,1006.66,VALID,0,VALID,86.6286,VALID,0.105969,VALID,23.0688,VALID,143,VALID,0.0714844,
2009-11-08, 03:11:04,VALID,1006.61,VALID,0,VALID,86.6286,VALID,0.105969,VALID,23.0883,VALID,143,VALID,0.128125,
2009-11-08, 03:12:04,VALID,1006.62,VALID,0,VALID,86.5981,VALID,0.105969,VALID,23.0883,VALID,146,VALID,0.00117188,
2009-11-08, 03:13:04,VALID,1006.65,VALID,0,VALID,86.5981,VALID,0.105969,VALID,23.1077,VALID,177,VALID,1.04492,
2009-11-08, 03:14:04,VALID,1006.66,VALID,0,VALID,86.5828,VALID,0.105969,VALID,23.1679,VALID,165,VALID,0.646875,
2009-11-08, 03:15:04,VALID,1006.66,VALID,0,VALID,86.5676,VALID,0.105969,VALID,23.1467,VALID,163,VALID,0.567187,
2009-11-08, 03:16:04,VALID,1006.69,VALID,0,VALID,86.5752,VALID,0.105969,VALID,23.1662,VALID,169,VALID,0.949609,
2009-11-08, 03:17:04,VALID,1006.7,VALID,0,VALID,86.5752,VALID,0.105969,VALID,23.1857,VALID,169,VALID,1.03984,
2009-11-08, 03:18:04,VALID,1006.71,VALID,0,VALID,86.5523,VALID,0.105969,VALID,23.2051,VALID,175,VALID,0.583203,
2009-11-08, 03:19:04,VALID,1006.76,VALID,0,VALID,86.537,VALID,0.105969,VALID,23.2246,VALID,196,VALID,0.803516,
2009-11-08, 03:20:04,VALID,1006.76,VALID,0,VALID,86.5523,VALID,0.105969,VALID,23.2441,VALID,165,VALID,0.831641,
2009-11-08, 03:21:04,VALID,1006.75,VALID,0,VALID,86.537,VALID,0,VALID,23.2459,VALID,178,VALID,1.16211,
2009-11-08, 03:22:04,VALID,1006.73,VALID,0,VALID,86.5294,VALID,0.105969,VALID,23.2636,VALID,182,VALID,1.08594,
2009-11-08, 03:23:04,VALID,1006.77,VALID,0,VALID,86.5523,VALID,0,VALID,23.2459,VALID,156,VALID,1.67617,
2009-11-08, 03:24:04,VALID,1006.75,VALID,0,VALID,86.5599,VALID,0.105969,VALID,23.2051,VALID,174,VALID,0.889844,
2009-11-08, 03:25:04,VALID,1006.78,VALID,0,VALID,86.5599,VALID,0,VALID,23.2282,VALID,162,VALID,1.19805,
2009-11-08, 03:26:04,VALID,1006.77,VALID,0,VALID,86.5904,VALID,0,VALID,23.1874,VALID,163,VALID,1.16328,
2009-11-08, 03:27:04,VALID,1006.79,VALID,0,VALID,86.5981,VALID,0,VALID,23.2087,VALID,143,VALID,1.13281,
2009-11-08, 03:28:04,VALID,1006.77,VALID,0,VALID,86.5752,VALID,0,VALID,23.1874,VALID,199,VALID,1.22344,
2009-11-08, 03:29:04,VALID,1006.76,VALID,0,VALID,86.5828,VALID,0,VALID,23.2069,VALID,168,VALID,1.59453,
2009-11-08, 03:30:04,VALID,1006.8,VALID,0,VALID,86.5599,VALID,0,VALID,23.2069,VALID,197,VALID,1.19961,
2009-11-08, 03:31:04,VALID,1006.78,VALID,0,VALID,86.5294,VALID,0,VALID,23.2264,VALID,162,VALID,0.739453,
2009-11-08, 03:32:04,VALID,1006.77,VALID,0,VALID,86.5523,VALID,0,VALID,23.2476,VALID,143,VALID,0.944922,
2009-11-08, 03:33:04,VALID,1006.76,VALID,0,VALID,86.5523,VALID,0,VALID,23.2264,VALID,169,VALID,0.98125,
2009-11-08, 03:34:04,VALID,1006.76,VALID,0,VALID,86.5294,VALID,0,VALID,23.2654,VALID,145,VALID,0.759375,
2009-11-08, 03:35:04,VALID,1006.76,VALID,0,VALID,86.537,VALID,0,VALID,23.2459,VALID,175,VALID,0.771875,
2009-11-08, 03:36:04,VALID,1006.77,VALID,0,VALID,86.5218,VALID,0,VALID,23.2654,VALID,182,VALID,0.753906,
2009-11-08, 03:37:04,VALID,1006.78,VALID,0,VALID,86.5142,VALID,0,VALID,23.2866,VALID,170,VALID,0.988281,
2009-11-08, 03:38:04,VALID,1006.77,VALID,0,VALID,86.5142,VALID,0,VALID,23.2848,VALID,136,VALID,0.939453,
2009-11-08, 03:39:04,VALID,1006.78,VALID,0,VALID,86.4913,VALID,0,VALID,23.3451,VALID,153,VALID,0.663672,
2009-11-08, 03:40:04,VALID,1006.8,VALID,0,VALID,86.4837,VALID,0.105969,VALID,23.3433,VALID,182,VALID,0.830469,
2009-11-08, 03:41:04,VALID,1006.83,VALID,0,VALID,86.4837,VALID,0.105969,VALID,23.322,VALID,155,VALID,0.930078,
2009-11-08, 03:42:04,VALID,1006.82,VALID,0,VALID,86.4837,VALID,0.105969,VALID,23.3415,VALID,151,VALID,0.616406,